Location: Britford
(51.0333°N, 1.7667°W)
Time: 18:42:04
(UTC+00:00)

Daily predictions for brighter satellites

Satellite Brightness Start Highest point End
(mag) Time Altitude Azimuth Time Altitude Azimuth Time Altitude Azimuth
CZ-4C R/B 3.2 17:35:12 10° NW 17:42:15 77° SW 17:50:21 10° SE
Cosmos 1486 Rocket 4.3 17:37:14 10° NNW 17:42:33 76° WSW 17:47:52 10° SSE
Unknown 4.5 17:40:08 10° SSW 17:43:54 35° SE 17:47:42 10° ENE
Unknown 4.5 17:40:11 10° SSW 17:43:57 35° SE 17:47:45 10° ENE
COSMOS 2406 3.8 17:38:42 10° NNW 17:44:08 40° NE 17:49:31 10° ESE
Unknown 4.5 17:40:57 10° SSW 17:44:45 35° SE 17:48:32 10° ENE
Unknown 3.4 17:41:36 10° W 17:45:07 68° N 17:48:39 10° ENE
Cosmos 2082 Rocket 3.6 17:40:55 10° NNW 17:45:10 21° NE 17:49:25 10° E
Cosmos 1758 3.3 17:41:26 10° S 17:45:22 62° E 17:49:18 10° NNE
Cosmos 2297 Rocket 4.5 17:41:59 10° WNW 17:45:30 17° NNW 17:49:03 10° N
Cosmos 1354 Rocket 4.0 17:42:34 10° NNW 17:47:49 68° ENE 17:53:02 10° SE
Unknown 4.4 17:44:57 10° SSW 17:48:47 37° SE 17:52:38 10° ENE
Unknown 4.4 17:45:05 10° SSW 17:48:55 37° SE 17:52:46 10° ENE
Unknown 4.3 17:46:47 10° SW 17:50:40 39° SE 17:54:32 10° ENE
NOSS 2-1 (C) 4.5 17:45:37 10° NW 17:50:47 87° SW 17:58:02 10° SE
Cosmos 332 Rocket 4.1 17:46:28 10° SSW 17:51:18 75° WNW 17:56:13 10° NNE
ASTEX 1 3.9 17:47:10 10° NNE 17:51:48 39° E 17:56:26 10° SSE
Cosmos 1726 Rocket 4.2 17:49:35 10° SSE 17:53:33 34° E 17:57:32 10° NNE
Unknown 4.3 17:50:03 10° SW 17:53:57 41° SSE 17:57:52 10° ENE
Unknown 4.3 17:50:38 10° SW 17:54:31 40° SSE 17:58:25 10° ENE
Unknown 3.4 17:51:26 10° W 17:54:50 61° N 17:58:13 10° ENE
Unknown 4.3 17:51:39 10° SW 17:55:33 41° SSE 17:59:28 10° ENE
Cosmos 1242 Rocket 3.4 17:53:11 10° N 17:56:31 31° ENE 17:59:50 10° SE
Okean-O 3.1 17:53:32 10° S 17:57:57 67° WSW 18:02:24 10° NNW
FengYun 1-2 T 4.3 17:52:31 10° SSE 17:58:07 68° ENE 18:03:43 10° N
CSL-04 Debris 4.3 17:52:55 10° SE 17:58:13 56° ENE 18:03:35 10° N
Cosmos 968 Rocket 3.6 17:52:57 10° NNW 17:58:16 88° ENE 18:03:33 10° SSE
Unknown 4.2 17:54:50 10° SW 17:58:45 41° SSE 18:02:36 10° ENE
Shenzhou-11 Module 4.4 17:58:33 10° S 17:58:57 10° SSE 17:59:20 10° SSE
Unknown 3.0 17:57:11 10° WNW 18:00:16 63° N 18:03:09 12° E
Cosmos 2239 Rocket 4.5 17:54:23 10° N 18:00:34 68° ENE 18:06:40 10° SSE
Unknown 4.1 17:58:11 10° SW 18:02:09 44° SSE 18:05:54 11° ENE
Cosmos 1302 Rocket 4.3 17:58:15 10° SSW 18:03:27 75° WNW 18:08:44 10° NNE
Cosmos 2058 Rocket 3.8 17:59:44 10° SSE 18:03:30 29° E 18:07:17 10° NNE
Unknown 4.1 17:59:50 10° SW 18:03:48 45° SSE 18:07:29 12° ENE
Falcon 9 debris 3.4 18:01:11 10° W 18:04:37 61° N 18:07:41 12° ENE
Cosmos 1939 Rocket 3.7 18:01:44 10° SE 18:05:09 29° ENE 18:08:40 10° N
Unknown 4.1 18:01:30 10° SW 18:05:29 46° SSE 18:09:07 12° ENE
Ariane Rocket 3.7 18:02:11 10° SE 18:06:45 34° ENE 18:11:20 10° N
Cosmos 2228 3.2 18:02:33 10° SSE 18:06:46 48° E 18:10:58 10° NNE
Cosmos 1605 Rocket 4.4 18:01:03 10° N 18:06:53 39° ENE 18:12:36 10° SE
Cosmos 1821 Rocket 3.9 18:00:49 10° N 18:06:58 81° E 18:13:07 10° SSE
Unknown 4.0 18:03:08 10° SW 18:07:08 48° SSE 18:10:43 12° ENE
Lacrosse 5 rocket 1.7 18:04:09 10° WNW 18:07:49 57° SW 18:11:41 10° SE
ATLAS CENTAUR R/B 3.9 18:05:05 10° NW 18:08:17 17° NNW 18:11:24 10° NNE
Unknown 3.4 18:04:44 10° WSW 18:08:29 81° NNW 18:11:49 13° ENE
Unknown 3.4 18:05:16 10° W 18:08:45 62° N 18:11:44 14° ENE
Unknown 4.0 18:06:23 10° SW 18:10:24 50° SSE 18:13:52 13° ENE
Unknown 3.4 18:06:34 10° WSW 18:10:28 80° SSE 18:13:52 13° ENE
Unknown 3.4 18:07:35 10° WSW 18:11:26 88° SSE 18:14:45 14° ENE
Unknown 3.9 18:08:07 10° SW 18:12:09 51° SSE 18:15:33 14° ENE
Cosmos 1503 Rocket 4.2 18:08:04 10° NNW 18:13:15 74° WSW 18:18:24 10° SSE
Cosmos 1844 Rocket 2.8 18:08:04 10° S 18:13:37 59° ESE 18:19:10 10° NE
Unknown 3.9 18:09:44 10° SW 18:13:46 52° SSE 18:17:06 14° ENE
Meteor 1-16 Rocket 4.4 18:09:56 10° SSE 18:15:14 47° E 18:20:25 10° NNE
Unknown 3.9 18:11:20 10° SW 18:15:21 52° SSE 18:18:38 15° ENE
Cosmos 1992 Rocket 4.0 18:10:21 10° S 18:15:29 60° ESE 18:20:39 10° NNE
Unknown 3.9 18:11:54 10° SW 18:15:56 53° SSE 18:19:12 15° ENE
Meteor 2-10 4.5 18:11:36 10° SSE 18:16:12 35° E 18:20:46 10° NNE
Nadezhda 3 Rocket 4.0 18:11:08 10° S 18:17:24 81° E 18:23:47 10° NNE
Cosmos 921 Rocket 3.5 18:14:01 10° S 18:18:13 39° ESE 18:22:24 10° NE
Unknown 3.9 18:14:31 10° SW 18:18:32 52° SSE 18:21:40 16° ENE
COSMO-SKYMED 1 2.5 18:15:19 10° NNE 18:19:40 69° ESE 18:24:00 10° S
Cosmos 1908 4.2 18:18:01 10° SE 18:21:16 26° E 18:24:31 10° NNE
Cosmos 1328 3.9 18:17:41 10° N 18:21:37 52° ENE 18:25:29 10° SSE
Cosmos 1934 Rocket 4.0 18:15:25 10° N 18:21:44 70° ENE 18:28:05 10° SSE
Unknown 3.9 18:17:50 10° SW 18:21:53 54° SSE 18:24:54 17° ENE
Cosmos 1535 Rocket 4.4 18:15:39 10° N 18:21:55 71° ENE 18:28:03 10° SSE
Cosmos 1777 Rocket 4.3 18:17:17 10° NNW 18:22:19 46° ENE 18:27:19 10° SE
YAOGAN 6 2.7 18:19:21 10° SSE 18:23:03 84° WSW 18:26:43 10° NNW
Unknown 3.8 18:19:27 10° SW 18:23:29 55° SSE 18:26:26 18° ENE
CZ-4 R/B 1.6 18:19:51 10° S 18:24:01 79° WSW 18:28:16 10° NNW
Cosmos 1470 3.7 18:20:19 10° SSW 18:24:12 52° WNW 18:28:08 10° N
Unknown 3.7 18:21:19 10° SW 18:25:24 60° SSE 18:28:20 18° ENE
Unknown 3.8 18:22:44 10° SW 18:26:49 58° SSE 18:29:39 19° ENE
Cosmos 839 Rocket 4.0 18:21:29 10° NW 18:27:41 82° NE 18:34:29 10° SE
Unknown 3.8 18:24:25 10° SW 18:28:30 59° SSE 18:31:16 19° ENE
Cosmos 2084 3.7 18:24:25 10° SSW 18:28:49 53° SE 18:32:39 13° NE
Cosmos 2278 Rocket 3.2 18:25:45 10° SSE 18:30:03 23° ESE 18:34:24 10° NE
USA 116 3.3 18:27:10 10° NNE 18:30:13 50° ESE 18:33:21 10° S
H-2A R/B 3.3 18:28:31 17° E 18:30:53 23° ENE 18:34:59 10° N
Unknown 3.7 18:27:42 10° SW 18:31:48 61° SSE 18:34:27 21° ENE
SJ 16-02 3.5 18:31:42 10° NE 18:32:00 10° NE 18:32:18 10° NE
Cosmos 1953 Rocket 3.8 18:28:04 10° NNW 18:32:29 71° W 18:36:48 10° S
Lacrosse 5 2.3 18:27:39 10° WNW 18:32:36 50° NNE 18:35:56 20° E
Cosmos 1844 3.7 18:27:32 10° SSW 18:33:10 66° ESE 18:38:55 10° NE
Unknown 3.7 18:29:24 10° SW 18:33:30 62° SSE 18:36:05 21° ENE
Unknown 3.7 18:31:04 10° SW 18:35:09 64° SSE 18:37:41 22° ENE
HJ-1C 4.0 18:33:05 18° SE 18:35:09 35° ENE 18:38:16 10° N
Unknown 3.7 18:32:43 10° SW 18:36:50 65° SSE 18:39:17 23° ENE
Unknown 3.6 18:36:02 10° WSW 18:40:08 67° SSE 18:42:28 24° ENE
Unknown 3.6 18:37:40 10° WSW 18:41:47 70° SSE 18:44:05 25° ENE
Unknown 3.6 18:37:56 10° WSW 18:42:05 74° SSE 18:44:23 25° ENE
Unknown 3.6 18:39:32 10° WSW 18:43:41 74° SSE 18:45:55 26° ENE
ATLAS 5 CENTAUR R/B 1.8 18:39:22 10° SW 18:43:42 76° NW 18:48:41 10° NE
Cosmos 292 Rocket 4.0 18:40:05 10° S 18:44:35 44° ESE 18:49:05 10° NE
Unknown 3.2 18:43:38 10° WNW 18:46:13 47° SSW 18:47:05 32° SSE
Unknown 3.6 18:42:34 10° WSW 18:46:42 72° SSE 18:48:48 28° ENE
Cosmos 1606 Rocket 4.2 18:44:36 10° SSW 18:48:56 58° WNW 18:53:16 10° N
Unknown 3.6 18:45:55 10° WSW 18:50:02 75° SSE 18:52:00 30° ENE
Cosmos 2058 4.1 18:48:11 10° NNE 18:51:28 24° ENE 18:51:28 24° ENE
Unknown 3.5 18:47:38 10° WSW 18:51:47 76° SSE 18:53:41 31° ENE
Unknown 3.5 18:49:13 10° WSW 18:53:22 77° SSE 18:55:12 32° ENE
SWAS 4.3 18:49:11 10° SSW 18:53:26 73° ESE 18:57:41 10° NE
Unknown 3.5 18:50:57 10° WSW 18:55:05 78° SSE 18:56:51 33° ENE
CSL-04 Rocket 4.5 18:52:53 10° S 18:58:19 55° WSW 19:03:44 10° NNW
Cosmos 1153 Rocket 4.5 18:52:46 10° N 18:58:52 59° ENE 19:04:55 10° SSE
Unknown 3.5 18:54:46 10° WSW 18:58:52 86° SSE 19:00:29 36° ENE
SL-4 R/B 4.1 18:56:06 10° W 18:58:55 19° SW 19:01:34 10° S
Cosmos 2263 Rocket 4.2 18:55:04 10° W 18:59:42 25° NW 19:04:21 10° NNE
CZ-2D R/B 3.5 18:56:37 10° S 19:00:27 72° WSW 19:04:19 10° NNW
NOAA 11 4.2 18:55:50 10° SSE 19:01:17 83° WSW 19:06:46 10° NNW
Unknown 3.5 18:57:32 10° WSW 19:01:42 83° SSE 19:03:13 38° ENE
Unknown 3.5 18:59:13 10° WSW 19:03:22 84° SSE 19:04:48 40° ENE
Unknown 3.5 19:00:53 10° WSW 19:05:02 85° SSE 19:06:26 41° ENE
Unknown 3.5 19:02:30 10° WSW 19:06:39 86° SSE 19:07:58 43° ENE
Cosmos 1812 Rocket 4.0 19:07:06 39° E 19:07:06 39° E 19:11:14 10° NNE
Unknown 3.5 19:04:11 10° WSW 19:08:20 88° SSE 19:09:36 44° ENE
Gbstr 26 Del rocket 4.1 19:02:54 10° WNW 19:09:03 85° SSW 19:12:54 30° ESE
Cosmos 489 Rocket 4.3 19:03:29 10° SSW 19:09:40 72° ESE 19:15:51 10° NNE
Unknown 3.5 19:06:17 10° WSW 19:10:21 81° NNW 19:11:30 46° ENE
DMSP B5D1-3 4.4 19:06:10 10° NNE 19:11:19 89° ESE 19:16:28 10° SSW
Unknown 3.5 19:07:33 10° WSW 19:11:43 90° SE 19:12:51 47° ENE
Cosmos 1356 3.7 19:08:57 10° SSW 19:12:22 67° WNW 19:15:49 10° N
Cosmos 1833 Rocket 2.6 19:06:55 10° NNW 19:12:34 75° ENE 19:15:36 28° SE
Starlink (trailer) 3.5 19:09:12 10° WSW 19:13:22 89° NNW 19:14:26 49° ENE
Unknown 3.5 19:10:52 10° WSW 19:15:02 88° NNW 19:16:01 51° ENE
Cosmos 1703 4.3 19:11:16 10° NNW 19:15:07 48° W 19:18:53 10° SSW
YAOGAN 1 4.4 19:12:02 10° SSW 19:15:56 32° W 19:19:52 10° NNW
Cosmos 1726 2.8 19:13:01 10° SSW 19:16:36 54° WNW 19:20:13 10° N
Unknown 3.5 19:12:29 10° WSW 19:16:38 87° NNW 19:17:35 53° ENE
ARGOS 3.5 19:15:47 37° E 19:17:04 44° ENE 19:22:12 10° N
Cosmos 2061 Rocket 4.4 19:12:50 10° N 19:18:42 39° ENE 19:19:54 36° E
SJ-6B 3.1 19:19:40 45° NE 19:19:40 45° NE 19:22:48 10° N
FALCON 9 DEB 3.1 19:16:19 10° WNW 19:19:48 72° NNE 19:19:51 71° NNE
Cosmos 1461 2.7 19:17:31 10° NW 19:21:35 72° NE 19:22:03 64° E
Unknown 3.2 19:19:03 10° WNW 19:22:33 69° N 19:22:33 69° N
Cosmos 2084 Rocket 4.0 19:18:45 10° NW 19:23:01 43° NE 19:23:21 42° NE
Unknown 3.5 19:19:07 10° WSW 19:23:16 83° NNW 19:23:56 62° ENE
Unknown 3.5 19:19:10 10° WSW 19:23:20 84° NNW 19:24:00 61° ENE
Unknown 3.5 19:19:58 10° WSW 19:24:07 83° NNW 19:24:45 63° ENE
Cosmos 1076 Rocket 3.4 19:21:59 10° N 19:26:22 69° ENE 19:26:54 61° ESE
ADEOS Rocket 3.7 19:19:51 10° NNE 19:27:18 46° E 19:34:20 10° SSE
Unknown 3.5 19:24:02 10° WSW 19:28:11 81° NNW 19:28:39 68° NE
Unknown 3.5 19:24:10 10° WSW 19:28:20 81° NNW 19:28:47 68° NE
COSMOS 2406 4.2 19:23:05 10° NW 19:28:35 47° WSW 19:34:02 10° S
Unknown 3.5 19:25:56 10° WSW 19:30:06 79° NNW 19:30:29 70° NE
Cosmos 2082 Rocket 2.1 19:24:33 10° NNW 19:30:18 73° ENE 19:32:05 45° SE
USA 186 4.4 19:34:12 10° N 19:34:12 10° N 19:34:15 10° N
Unknown 3.5 19:28:27 10° WNW 19:31:22 62° WNW 19:31:22 62° WNW
Unknown 3.5 19:29:15 10° W 19:33:24 78° NNW 19:33:40 73° NNE
Unknown 3.5 19:29:48 10° W 19:33:57 78° NNW 19:34:11 74° NNE
Unknown 3.5 19:30:50 10° W 19:35:00 78° NNW 19:35:11 75° NNE
MOS 1 4.4 19:30:30 12° S 19:35:48 75° WSW 19:41:30 10° NNW
Unknown 4.3 19:33:00 10° WNW 19:35:15 37° WSW 19:35:15 37° WSW
Unknown 3.6 19:34:03 10° W 19:38:12 77° NNW 19:38:16 77° N
Unknown 3.6 19:37:28 10° W 19:41:33 75° NNW 19:41:33 75° NNW
Falcon 9 debris 4.0 19:38:20 10° WNW 19:40:57 48° WNW 19:40:57 48° WNW
SJ-11-01 4.4 19:40:18 34° S 19:42:21 73° WSW 19:47:04 10° NNW
Unknown 3.7 19:39:09 10° W 19:43:08 73° NW 19:43:08 73° NW
Unknown 3.7 19:40:50 10° W 19:44:46 71° NW 19:44:46 71° NW
Ariane Rocket 4.2 19:40:50 10° SSW 19:45:38 41° W 19:50:29 10° NNW
Unknown 4.2 19:42:38 10° WNW 19:45:11 45° WNW 19:45:11 45° WNW
Lacrosse 5 rocket 4.1 19:45:14 10° WSW 19:46:19 11° SW 19:47:25 10° SW
Unknown 3.8 19:42:29 10° W 19:46:22 69° NW 19:46:22 69° NW
Unknown 4.1 19:43:00 10° WNW 19:46:02 51° NW 19:46:02 51° NW
ATLAS CENTAUR R/B 3.7 19:45:55 10° NNW 19:48:57 17° N 19:49:26 16° NNE
Unknown 4.1 19:45:22 10° W 19:48:38 54° NW 19:48:38 54° NW
Unknown 3.9 19:45:47 10° W 19:49:31 65° NW 19:49:31 65° NW
Unknown 4.2 19:46:11 10° W 19:49:17 51° NW 19:49:17 51° NW
SPOT 3 Rocket 3.5 19:49:53 53° S 19:51:08 86° WSW 19:56:24 10° NNW
Unknown 4.0 19:47:32 10° W 19:51:12 63° WNW 19:51:12 63° WNW
Unknown 4.0 19:49:10 10° W 19:52:45 61° WNW 19:52:45 61° WNW
Cosmos 1459 Rocket 3.8 19:47:28 10° N 19:53:41 85° E 19:55:52 44° SSE
USA 238 DEB 3.9 19:47:48 10° SSW 19:53:10 46° SSE 19:53:10 46° SSE
USA 238 3.9 19:47:56 10° SSW 19:53:11 45° SSE 19:53:11 45° SSE
Unknown 4.1 19:50:46 10° W 19:54:17 59° WNW 19:54:17 59° WNW
Unknown 4.1 19:51:20 10° W 19:54:51 58° WNW 19:54:51 58° WNW
Resurs 01 Rocket 3.0 19:59:19 30° N 19:59:19 30° N 20:01:46 10° N
Cosmos 1844 Rocket 4.3 19:52:48 10° WSW 19:57:52 33° NW 20:02:56 10° NNE
Unknown 4.2 19:53:57 10° W 19:57:19 55° WNW 19:57:19 55° WNW
USA 234 4.5 20:01:10 24° S 20:01:10 24° S 20:04:06 10° SSW
In-Cosmos 22 Rocket 3.9 19:54:32 10° NNW 19:59:56 86° E 20:00:10 82° SE
Unknown 4.4 19:57:19 10° W 20:00:33 51° WNW 20:00:33 51° WNW
Cosmos 1727 Rocket 4.2 19:55:45 10° SSW 20:01:54 68° WNW 20:08:05 10° N
Unknown 4.5 19:58:56 10° W 20:02:06 49° WNW 20:02:06 49° WNW
Cosmos 1937 Rocket 4.2 19:59:57 10° NNW 20:03:47 42° NNE 20:03:47 42° NNE
Cosmos 1802 Rocket 3.9 19:58:51 10° N 20:05:21 86° E 20:06:46 58° SSE
H-2A R/B 2.2 20:09:09 65° SSW 20:09:46 73° WSW 20:15:11 10° NNW
SJ 16-02 3.0 20:07:25 10° NNW 20:09:32 26° N 20:09:32 26° N
Cosmos 2278 Rocket 2.3 20:07:55 10° SW 20:13:36 72° WNW 20:16:57 26° NNE
Cosmos 2173 Rocket 4.1 20:08:12 10° NNW 20:14:29 71° W 20:16:35 43° SSW
Cosmos 990 Rocket 4.4 20:10:21 10° NNW 20:14:28 55° N 20:14:28 55° N
Lacrosse 5 2.2 20:10:45 10° WNW 20:15:08 60° W 20:15:08 60° W
Cosmos 1864 Rocket 4.4 20:11:05 10° N 20:16:42 69° NE 20:16:42 69° NE
MetOp-A 4.4 20:23:26 62° NNW 20:23:26 62° NNW 20:27:54 10° NNW
CZ-2C R/B 3.3 20:26:59 78° WNW 20:26:59 78° WNW 20:32:32 10° NNW
ATLAS 5 CENTAUR R/B 3.6 20:25:15 10° WNW 20:29:10 26° NNW 20:30:17 24° N
Cosmos 1725 Rocket 4.0 20:24:44 10° N 20:30:30 76° N 20:30:30 76° N
Cosmos 1898 Rocket 4.5 20:40:39 10° NNW 20:44:25 45° NW 20:44:25 45° NW
ARGOS 4.5 20:57:18 34° W 20:57:27 34° W 21:02:23 10° NNW
ADEOS Rocket 4.2 21:05:22 10° N 21:12:50 51° WNW 21:19:58 10° SW
Cosmos 2082 Rocket 4.1 21:09:29 10° NW 21:13:50 23° WSW 21:13:57 23° WSW
Cosmos 2278 Rocket 4.4 21:54:32 10° W 21:58:43 21° NW 21:58:58 20° NNW
